Location: Quaker Farms
(41.4276°N, 73.1557°W)
Time: 20:51:51
(UTC+00:00)

S-56A Canister/Altair - Pass Details

Date: 17 June 2021
Orbit: 631 x 2501 km, 38.9° (Epoch: 30 July)

Event Time Altitude Azimuth Distance (km) Brightness Sun altitude
Rises 09:56:27 0° 232° (SW) 2,910 9.8 5.3°
Reaches altitude 10° 09:58:47 10° 224° (SW) 2,006 9.1 5.7°
Maximum altitude 10:02:52 36° 156° (SSE) 1,058 8.4 6.4°
Drops below altitude 10° 10:07:40 10° 90° (E) 2,368 11.5 7.2°
Sets 10:10:39 0° 82° (E) 3,523 12.7 7.7°
